When you browse on this site, cookies collect data to enhance your experience and personalize the content and advertising you see.
Visit our Privacy Policy to learn more. By continuing to use the site, you agree to this use of cookies and data.
  • In Latvia
  • List of Countries
  • For 7 days
  • Water Temperature
  • Weather Map
  • Weather Widgets
  • user-avatar
    Login

    Hourly Weather Canberra

    Today, 8 December, Sunday

    Time Temperature Precipitation Wind Pressure Humidity
    00:00 +14°C° 0 mm 2 mps 710 mmHg 89%
    01:00 +14°C° 0 mm 1 mps 710 mmHg 88%
    02:00 +14°C° 0 mm 1 mps 710 mmHg 88%
    03:00 +14°C° 0 mm 1 mps 710 mmHg 87%
    04:00 +14°C° 0 mm 1 mps 709 mmHg 86%
    05:00 +15°C° 0 mm 1 mps 710 mmHg 79%
    06:00 +16°C° 0 mm 1 mps 711 mmHg 72%
    07:00 +19°C° 0 mm 1 mps 712 mmHg 64%
    08:00 +22°C° 0 mm 1 mps 712 mmHg 54%
    09:00 +24°C° 0 mm 1 mps 712 mmHg 44%
    10:00 +27°C° 0 mm 2 mps 712 mmHg 34%
    11:00 +29°C° 0 mm 1 mps 712 mmHg 30%
    12:00 +30°C° 0 mm 1 mps 712 mmHg 26%
    13:00 +32°C° 0 mm 1 mps 712 mmHg 23%
    14:00 +32°C° 0 mm 2 mps 712 mmHg 23%
    15:00 +32°C° 0 mm 2 mps 711 mmHg 23%
    16:00 +32°C° 0 mm 2 mps 711 mmHg 23%
    17:00 +28°C° 0 mm 3 mps 711 mmHg 37%
    18:00 +25°C° 0 mm 4 mps 711 mmHg 50%
    19:00 +20°C° 0 mm 5 mps 711 mmHg 64%
    20:00 +19°C° 0 mm 4 mps 712 mmHg 74%
    21:00 +17°C° 0 mm 3 mps 712 mmHg 84%
    22:00 +15°C° 0 mm 2 mps 712 mmHg 93%
    23:00 +15°C° 0 mm 2 mps 712 mmHg 91%

    Tomorrow, 9 December, Monday

    Time Temperature Precipitation Wind Pressure Humidity
    00:00 +16°C° 0 mm 2 mps 712 mmHg 89%
    01:00 +16°C° 0 mm 1 mps 712 mmHg 87%
    02:00 +16°C° 0 mm 1 mps 712 mmHg 89%
    03:00 +15°C° 0 mm 1 mps 712 mmHg 91%
    04:00 +14°C° 0 mm 1 mps 712 mmHg 93%
    05:00 +16°C° 0 mm 1 mps 712 mmHg 85%
    06:00 +19°C° 0 mm 1 mps 712 mmHg 77%
    07:00 +20°C° 0 mm 1 mps 712 mmHg 69%
    08:00 +24°C° 0 mm 2 mps 712 mmHg 55%
    09:00 +27°C° 0 mm 3 mps 713 mmHg 40%
    10:00 +31°C° 0 mm 3 mps 713 mmHg 26%
    11:00 +33°C° 0 mm 4 mps 712 mmHg 22%
    12:00 +35°C° 0 mm 5 mps 712 mmHg 18%
    13:00 +37°C° 0 mm 5 mps 711 mmHg 14%
    14:00 +37°C° 0 mm 5 mps 711 mmHg 14%
    15:00 +37°C° 0 mm 5 mps 710 mmHg 15%
    16:00 +37°C° 0 mm 5 mps 710 mmHg 15%
    17:00 +34°C° 0 mm 4 mps 710 mmHg 19%
    18:00 +31°C° 0 mm 2 mps 710 mmHg 22%
    19:00 +28°C° 0 mm 1 mps 710 mmHg 26%
    20:00 +26°C° 0 mm 1 mps 709 mmHg 29%
    21:00 +24°C° 0 mm 1 mps 709 mmHg 33%
    22:00 +22°C° 0 mm 1 mps 709 mmHg 36%
    23:00 +22°C° 0 mm 1 mps 709 mmHg 37%

    Day after tomorrow, 10 December, Tuesday

    Time Temperature Precipitation Wind Pressure Humidity
    00:00 +19°C° 0 mm 0 mps 708 mmHg 39%
    01:00 +18°C° 0 mm 0 mps 708 mmHg 40%
    02:00 +18°C° 0 mm 0 mps 708 mmHg 41%
    03:00 +17°C° 0 mm 0 mps 707 mmHg 41%
    04:00 +17°C° 0 mm 0 mps 707 mmHg 42%
    05:00 +19°C° 0 mm 0 mps 707 mmHg 38%
    06:00 +21°C° 0 mm 0 mps 708 mmHg 34%
    07:00 +24°C° 0 mm 0 mps 708 mmHg 31%
    08:00 +29°C° 0 mm 2 mps 708 mmHg 25%
    09:00 +33°C° 0 mm 4 mps 709 mmHg 19%
    10:00 +37°C° 0 mm 5 mps 709 mmHg 14%
    11:00 +39°C° 0 mm 6 mps 709 mmHg 12%
    12:00 +40°C° 0 mm 6 mps 708 mmHg 10%
    13:00 +41°C° 0 mm 6 mps 708 mmHg 9%
    14:00 +40°C° 0 mm 6 mps 708 mmHg 9%
    15:00 +40°C° 0 mm 5 mps 708 mmHg 9%
    16:00 +40°C° 0 mm 5 mps 707 mmHg 9%
    17:00 +34°C° 0 mm 5 mps 707 mmHg 22%
    18:00 +29°C° 0 mm 4 mps 707 mmHg 35%
    19:00 +23°C° 0 mm 4 mps 707 mmHg 48%
    20:00 +20°C° 0 mm 3 mps 708 mmHg 61%
    21:00 +17°C° 0 mm 3 mps 708 mmHg 74%
    22:00 +14°C° 0 mm 2 mps 708 mmHg 88%
    23:00 +14°C° 0 mm 2 mps 708 mmHg 89%

    11 December, Wednesday

    Time Temperature Precipitation Wind Pressure Humidity
    00:00 +13°C° 0 mm 2 mps 707 mmHg 91%
    01:00 +13°C° 0 mm 2 mps 707 mmHg 92%
    02:00 +12°C° 0 mm 2 mps 707 mmHg 93%
    03:00 +12°C° 0 mm 2 mps 707 mmHg 94%
    04:00 +12°C° 0 mm 1 mps 707 mmHg 95%
    05:00 +14°C° 0 mm 2 mps 707 mmHg 84%
    06:00 +15°C° 0 mm 2 mps 707 mmHg 74%
    07:00 +17°C° 0 mm 2 mps 708 mmHg 63%
    08:00 +20°C° 0 mm 2 mps 708 mmHg 53%
    09:00 +25°C° 0 mm 2 mps 708 mmHg 44%
    10:00 +28°C° 0 mm 2 mps 708 mmHg 34%
    11:00 +30°C° 0 mm 3 mps 708 mmHg 27%
    12:00 +34°C° 0 mm 4 mps 707 mmHg 21%
    13:00 +36°C° 0 mm 4 mps 707 mmHg 14%
    14:00 +36°C° 0 mm 4 mps 706 mmHg 13%
    15:00 +36°C° 0 mm 4 mps 706 mmHg 13%
    16:00 +36°C° 0 mm 4 mps 705 mmHg 12%
    17:00 +30°C° 0 mm 4 mps 705 mmHg 27%
    18:00 +26°C° 0 mm 4 mps 705 mmHg 43%
    19:00 +20°C° 0 mm 4 mps 705 mmHg 58%
    20:00 +18°C° 0 mm 3 mps 706 mmHg 69%
    21:00 +16°C° 0 mm 3 mps 706 mmHg 80%
    22:00 +14°C° 0 mm 2 mps 706 mmHg 92%
    23:00 +14°C° 0 mm 2 mps 706 mmHg 90%

    12 December, Thursday

    Time Temperature Precipitation Wind Pressure Humidity
    00:00 +14°C° 0 mm 1 mps 705 mmHg 88%
    01:00 +14°C° 0 mm 1 mps 705 mmHg 86%
    02:00 +13°C° 0 mm 1 mps 705 mmHg 89%
    03:00 +11°C° 0 mm 0 mps 704 mmHg 92%
    04:00 +10°C° 0 mm 0 mps 704 mmHg 95%
    05:00 +12°C° 0 mm 0 mps 705 mmHg 85%
    06:00 +14°C° 0 mm 0 mps 705 mmHg 75%
    07:00 +16°C° 0 mm 0 mps 706 mmHg 66%
    08:00 +21°C° 0 mm 1 mps 706 mmHg 53%
    09:00 +24°C° 0 mm 3 mps 706 mmHg 40%
    10:00 +27°C° 0 mm 4 mps 706 mmHg 28%
    11:00 +28°C° 0 mm 5 mps 706 mmHg 25%
    12:00 +29°C° 0 mm 6 mps 705 mmHg 21%
    13:00 +32°C° 0 mm 7 mps 705 mmHg 18%
    14:00 +30°C° 0 mm 6 mps 705 mmHg 17%
    15:00 +30°C° 0 mm 6 mps 704 mmHg 16%
    16:00 +30°C° 0 mm 6 mps 704 mmHg 14%
    17:00 +28°C° 0 mm 5 mps 705 mmHg 19%
    18:00 +25°C° 0 mm 4 mps 705 mmHg 23%
    19:00 +22°C° 0 mm 3 mps 706 mmHg 27%
    20:00 +19°C° 0 mm 3 mps 706 mmHg 47%
    21:00 +16°C° 0 mm 3 mps 706 mmHg 66%
    22:00 +12°C° 0 mm 3 mps 706 mmHg 86%
    23:00 +12°C° 0 mm 3 mps 706 mmHg 86%

    13 December, Friday

    Time Temperature Precipitation Wind Pressure Humidity
    00:00 +13°C° 0 mm 2 mps 706 mmHg 86%
    01:00 +13°C° 0 mm 1 mps 706 mmHg 87%
    02:00 +13°C° 0 mm 1 mps 706 mmHg 87%
    03:00 +13°C° 0 mm 2 mps 706 mmHg 88%
    04:00 +12°C° 0 mm 2 mps 706 mmHg 89%
    05:00 +13°C° 0 mm 2 mps 707 mmHg 85%
    06:00 +13°C° 0 mm 2 mps 707 mmHg 81%
    07:00 +13°C° 0 mm 3 mps 707 mmHg 77%
    08:00 +15°C° 0 mm 2 mps 708 mmHg 69%
    09:00 +17°C° 0 mm 2 mps 708 mmHg 61%
    10:00 +19°C° 0 mm 2 mps 708 mmHg 54%
    11:00 +19°C° 0 mm 3 mps 708 mmHg 53%
    12:00 +19°C° 0 mm 4 mps 707 mmHg 53%
    13:00 +19°C° 0 mm 4 mps 707 mmHg 52%
    14:00 +18°C° 0 mm 4 mps 707 mmHg 54%
    15:00 +16°C° 0 mm 5 mps 707 mmHg 56%
    16:00 +16°C° 0 mm 5 mps 707 mmHg 58%
    17:00 +14°C° 0 mm 4 mps 707 mmHg 63%
    18:00 +13°C° 0 mm 4 mps 707 mmHg 67%
    19:00 +11°C° 0 mm 3 mps 707 mmHg 72%
    20:00 +11°C° 0 mm 3 mps 708 mmHg 75%
    21:00 +10°C° 0 mm 3 mps 709 mmHg 78%
    22:00 +10°C° 0 mm 3 mps 710 mmHg 81%
    23:00 +10°C° 0 mm 3 mps 710 mmHg 81%
    Show more